TimeHST,TemperatureF,Dew PointF,Humidity,Sea Level PressureIn,VisibilityMPH,Wind Direction,Wind SpeedMPH,Gust SpeedMPH,PrecipitationIn,Events,Conditions,WindDirDegrees,DateUTC
12:54 AM,64.9,63.0,93,30.02,10.0,Calm,Calm,-,N/A,,Clear,0,2013-03-26 10:54:00
1:54 AM,64.9,63.0,93,30.00,10.0,ESE,4.6,-,N/A,,Clear,120,2013-03-26 11:54:00
2:54 AM,64.0,62.1,93,29.99,10.0,East,4.6,-,N/A,,Clear,90,2013-03-26 12:54:00
3:54 AM,64.0,62.1,93,29.98,10.0,Calm,Calm,-,N/A,,Clear,0,2013-03-26 13:54:00
4:54 AM,64.0,62.1,93,29.98,10.0,Calm,Calm,-,N/A,,Clear,0,2013-03-26 14:54:00
5:54 AM,64.0,61.0,90,30.01,10.0,Calm,Calm,-,N/A,,Clear,0,2013-03-26 15:54:00
6:54 AM,63.0,61.0,93,30.03,10.0,SE,5.8,-,N/A,,Clear,130,2013-03-26 16:54:00
7:54 AM,70.0,64.0,81,30.05,10.0,Calm,Calm,-,N/A,,Clear,0,2013-03-26 17:54:00
8:54 AM,75.0,66.0,73,30.07,10.0,North,3.5,-,N/A,,Partly Cloudy,350,2013-03-26 18:54:00
9:54 AM,78.1,66.9,68,30.07,10.0,NNW,6.9,-,N/A,,Partly Cloudy,340,2013-03-26 19:54:00
10:54 AM,81.0,66.9,62,30.06,10.0,NE,12.7,-,N/A,,Scattered Clouds,40,2013-03-26 20:54:00
11:54 AM,81.0,69.1,67,30.04,10.0,NNE,16.1,-,N/A,,Scattered Clouds,30,2013-03-26 21:54:00
12:54 PM,82.0,66.9,60,30.02,10.0,NE,15.0,-,N/A,,Scattered Clouds,40,2013-03-26 22:54:00
1:54 PM,82.0,66.9,60,30.00,10.0,NNE,16.1,-,N/A,,Scattered Clouds,30,2013-03-26 23:54:00
2:54 PM,82.0,69.1,65,29.99,10.0,NE,19.6,-,N/A,,Scattered Clouds,40,2013-03-27 00:54:00
3:54 PM,80.1,68.0,67,29.98,10.0,NE,16.1,-,N/A,,Scattered Clouds,40,2013-03-27 01:54:00
4:54 PM,78.1,66.9,68,29.99,10.0,NE,12.7,-,N/A,,Scattered Clouds,40,2013-03-27 02:54:00
5:54 PM,75.9,68.0,76,29.99,10.0,NE,11.5,-,N/A,,Scattered Clouds,40,2013-03-27 03:54:00
6:54 PM,73.9,66.9,79,30.00,10.0,NE,9.2,-,N/A,,Scattered Clouds,40,2013-03-27 04:54:00
7:54 PM,71.1,68.0,90,30.01,10.0,ENE,5.8,-,N/A,,Partly Cloudy,70,2013-03-27 05:54:00
8:54 PM,72.0,68.0,87,30.04,10.0,NE,3.5,-,N/A,,Partly Cloudy,40,2013-03-27 06:54:00
9:54 PM,71.1,66.9,87,30.05,10.0,Calm,Calm,-,N/A,,Partly Cloudy,0,2013-03-27 07:54:00
10:54 PM,70.0,68.0,93,30.05,10.0,Calm,Calm,-,N/A,,Partly Cloudy,0,2013-03-27 08:54:00
11:54 PM,68.0,66.0,93,30.04,10.0,Calm,Calm,-,N/A,,Clear,0,2013-03-27 09:54:00